Flag for Canada Weather past 2 weeks in Shawinigan, Quebec, Canada

Now
28 °F

Chilly.


Feels Like: 28 °F
Forecast: 26 / 44 °F
Wind: 2 mph from Northeast

Location: Shawinigan CS


UV Index: 0 (Low)

Visibility: N/A


Pressure: 30.49 "Hg

Humidity: 76%

Dew point: 21 °F

Location of ShawiniganLocation

Historic Weather in Shawinigan

°F

Shawinigan temperature yesterday

Maximum temperature yesterday: 41 °F (at 5:00 PM)
Minimum temperature yesterday: 15 °F (at 6:00 AM)
Average temperature yesterday: 29 °F

Past Weeks' High & Low Weather Summary

 TemperatureHumidityPressure
High55 °F (Apr 15, 12:00 PM)100% (Apr 4, 11:00 PM)30.81 "Hg (Apr 4, 11:00 PM)
Low14 °F (Apr 16, 7:00 AM)28% (Apr 9, 12:00 PM)29.20 "Hg (Apr 8, 4:00 PM)
Average36 °F70%29.94 "Hg
* Reported Apr 3 6:00 AM — Apr 18 6:00 AM, Shawinigan, Weather by CustomWeather, © 2014

Note: Actual official high and low records may vary slightly from our data, if they occured in-between our weather recording intervals... More about our weather records

Advertising

Historic Weather Conditions — Data for Previous 24 hours

 ConditionsComfort  
Time TempWeatherWind HumidityBarometerVisibility
6:00 AM
Apr 18
28 °FChilly.2 mph76%30.49 "HgN/A
5:00 AM28 °FChilly.2 mph76%30.50 "HgN/A
4:00 AM29 °FChilly.2 mph76%30.51 "HgN/A
3:00 AM29 °FChilly.2 mph75%30.52 "HgN/A
2:00 AM31 °FChilly.1 mph69%30.53 "HgN/A
1:00 AM31 °FChilly.3 mph69%30.54 "HgN/A
12:00 AM32 °FChilly.5 mph64%30.55 "HgN/A
11:00 PM
Apr 17
31 °FChilly.5 mph62%30.58 "HgN/A
10:00 PM33 °FChilly.5 mph59%30.59 "HgN/A
9:00 PM35 °FChilly.3 mph55%30.60 "HgN/A
8:00 PM36 °FChilly.3 mph55%30.61 "HgN/A
7:00 PM39 °FChilly.6 mph49%30.63 "HgN/A
6:00 PM40 °FQuite cool.6 mph42%30.66 "HgN/A
5:00 PM41 °FQuite cool.5 mph41%30.68 "HgN/A
4:00 PM40 °FChilly.7 mph43%30.71 "HgN/A
3:00 PM39 °FChilly.3 mph44%30.73 "HgN/A
2:00 PM38 °FChilly.7 mph46%30.75 "HgN/A
1:00 PM38 °FChilly.7 mph49%30.76 "HgN/A
12:00 PM36 °FChilly.7 mph59%30.78 "HgN/A
11:00 AM34 °FChilly.5 mph60%30.80 "HgN/A
10:00 AM31 °FChilly.2 mph68%30.81 "HgN/A
9:00 AM26 °FChilly.2 mph74%30.80 "HgN/A
8:00 AM20 °FCold.2 mph81%30.78 "HgN/A
7:00 AM16 °FCold.1 mph89%30.76 "HgN/A
Weather by CustomWeather, © 2014

See weather overview